Location: Sabalos
(43.2860°N, 0.1414°E)
Time: 04:36:30
(UTC+00:00)

Cosmos 1758 Rocket - Visible Passes

Search period start: 27 October 2020 00:00
Search period end: 06 November 2020 00:00
Orbit: 602 x 635 km, 82.5° (Epoch: 26 October)

Date Brightness Start Highest point End Pass type
(mag) Time Alt. Az. Time Alt. Az. Time Alt. Az.
27 Oct 6.9 05:13:00 10° ESE 05:15:32 15° E 05:18:03 10° NE visible
27 Oct 6.7 18:35:02 10° NW 18:37:52 17° W 18:40:39 10° SW visible
28 Oct 6.1 05:28:53 10° SE 05:32:36 26° E 05:36:21 10° NNE visible
29 Oct 4.8 05:45:29 10° SSE 05:49:47 48° E 05:54:06 10° NNE visible
29 Oct 4.5 17:30:46 10° NNW 17:35:03 53° W 17:39:16 10° S visible
30 Oct 5.8 17:48:28 10° NNW 17:52:14 29° W 17:55:58 10° SSW visible
31 Oct 6.8 04:44:21 10° ESE 04:47:01 16° E 04:49:40 10° NE visible
31 Oct 6.7 18:06:40 10° NW 18:09:19 16° W 18:11:58 10° WSW visible
01 Nov 5.9 05:00:18 10° SSE 05:04:05 28° E 05:07:53 10° NNE visible
02 Nov 4.6 05:16:57 10° SSE 05:21:17 50° E 05:25:37 10° NNE visible
03 Nov 3.6 05:34:04 10° S 05:38:34 86° W 05:43:03 10° N visible
03 Nov 6.0 17:20:01 10° NNW 17:23:41 27° W 17:27:20 10° SSW visible
04 Nov 6.6 04:15:42 10° SE 04:18:28 16° E 04:21:15 10° NE visible
04 Nov 3.8 05:51:38 10° SSW 05:55:56 46° WNW 06:00:15 10° N visible
04 Nov 6.7 17:38:17 10° NW 17:40:47 15° W 17:43:15 10° WSW visible
05 Nov 5.6 04:31:44 10° SSE 04:35:35 29° E 04:39:25 10° NNE visible
05 Nov 4.6 06:09:39 10° SW 06:13:24 26° WNW 06:17:10 10° NNW visible
